Regional Weather Roundup
Issued by NWS

Home | Current Version | Previous Version | Text Only | Print | Product List | Glossary Off
Versions: 1 2 3 4 5 6 7 8 9 10 11 12 13 14 15 16 17 18 19 20 21 22 23 24 25 26 27 28 29 30 31 32 33 34 35 36 37 38 39 40 41 42 43 44 45 46 47 48 49 50

000
ASUS43 KBIS 251410
RWRND

NORTH DAKOTA REGIONAL WEATHER ROUNDUP
NATIONAL WEATHER SERVICE BISMARCK ND
800 AM CST SAT FEB 25 2017

NOTE: "FAIR" INDICATES FEW OR NO CLOUDS BELOW 12,000 FEET WITH NO
SIGNIFICANT WEATHER AND/OR OBSTRUCTIONS TO VISIBILITY.


NDZ001>003-009>011-017-251500-
NORTHWEST NORTH DAKOTA

CITY           SKY/WX    TMP DP  RH WIND       PRES   REMARKS
WILLISTON      CLOUDY    18  17  96 N7        29.93S FOG     WCI   9
MINOT          FAIR      20  16  84 W9        29.88F WCI   9
$$

NDZ018>021-031>035-040>046-251500-
SOUTHWEST NORTH DAKOTA

CITY           SKY/WX    TMP DP  RH WIND       PRES   REMARKS
BISMARCK       CLOUDY    22  17  81 W5        29.91F WCI  16
DICKINSON      LGT SNOW  21  18  88 W6        29.84S FOG     WCI  13
GARRISON         N/A     19  16  88 NW10      29.88S WCI   7
HETTINGER ARPT CLOUDY    22  18  85 W9        29.88F WCI  12
$$

NDZ004>008-012>016-024-026-027-054-251500-
NORTHEAST NORTH DAKOTA

CITY           SKY/WX    TMP DP  RH WIND       PRES   REMARKS
GRAND FORKS    CLOUDY    22  14  71 S7        29.89F WCI  13
GRND FRKS AFB  MOCLDY    22  17  82 SW9       29.88F WCI  12
DEVILS LAKE    CLOUDY    20  17  88 W9        29.86F WCI   9
$$

NDZ022-023-025-028>030-036>039-047>053-251500-
SOUTHEAST NORTH DAKOTA

CITY           SKY/WX    TMP DP  RH WIND       PRES   REMARKS
FARGO          CLOUDY    20  13  74 S12       29.94F WCI   8
JAMESTOWN      FLURRIES  20  15  81 SW9       29.88F WCI   9
$$




USA.gov is the U.S. government's official web portal to all federal, state and local government web resources and services.